Wind_Speed
6 6 7 7 8 9 9 10 11 12 12 11 11 12 12 12 13 16 18 16 13 14 16 16 17 16 12 11 8 6 5 5 5 5 4 0 1 1 2 2 3 2 2
7 6 7 7 8 9 10 10 11 11 10 12 10 10 11 12 14 15 19 19 18 16 16 18 19 19 16 14 13 11 8 7 6 6 6 5 2 2 2 3 2 3 2
7 6 8 9 9 10 11 11 12 13 15 14 14 15 14 13 13 14 15 20 23 21 19 18 20 21 19 18 17 15 14 11 9 8 8 8 7 5 4 3 2 3 4
7 7 6 9 11 12 14 14 14 15 16 17 18 17 17 17 15 15 16 17 21 25 24 22 20 24 24 23 22 19 17 16 14 12 11 11 11 8 7 6 5 4 5
6 8 8 8 10 12 13 15 15 16 17 17 19 20 20 19 17 17 17 16 19 21 27 27 24 24 27 27 26 24 22 20 19 17 15 15 13 12 11 10 8 7 7
7 8 10 11 13 14 14 16 18 18 19 19 21 23 22 21 20 18 18 17 19 19 22 28 29 27 26 29 29 28 26 26 24 22 20 18 17 16 14 13 12 11 10
6 7 8 10 12 14 17 18 20 21 20 20 21 23 24 24 23 22 20 20 18 20 22 24 28 31 33 30 28 31 31 29 30 28 26 23 20 20 19 16 15 14 14
11 12 14 13 14 15 16 18 20 23 25 24 22 23 25 26 25 23 22 21 21 19 21 24 28 29 31 31 31 31 33 33 33 33 31 29 26 24 22 21 19 17 17
16 16 17 19 20 21 21 21 21 23 25 26 25 23 24 26 28 27 24 22 22 21 21 20 25 29 31 33 34 35 34 36 37 35 35 34 32 29 26 24 24 22 20
20 22 22 22 22 23 24 23 24 24 26 28 26 24 24 24 27 30 30 25 23 24 24 24 25 26 31 34 37 40 39 38 38 41 40 38 37 35 33 28 27 26 24
21 22 23 24 24 24 25 24 24 27 30 31 29 27 26 27 25 25 28 30 29 27 28 28 29 30 28 32 38 40 45 42 40 41 44 43 41 39 37 35 31 28 28
24 24 24 25 26 26 27 27 27 28 31 31 30 30 30 30 30 26 24 26 30 34 36 33 31 32 34 34 34 39 45 47 46 45 46 46 47 43 41 39 37 34 31
25 27 27 28 28 27 26 26 28 30 31 30 31 31 31 32 31 29 26 28 29 33 36 38 38 36 35 36 39 39 39 44 47 52 48 49 49 50 45 43 42 41 37
28 30 30 29 27 25 25 27 31 32 32 32 34 34 35 34 33 33 33 32 32 32 36 40 42 42 41 43 41 43 44 43 45 49 52 53 53 52 51 48 46 45 42
28 31 31 30 28 28 28 30 31 33 33 34 36 36 34 33 37 39 39 39 41 36 34 39 42 45 46 46 45 46 47 47 47 51 53 50 54 53 54 54 51 48 46
30 31 30 29 28 28 30 32 33 35 35 35 36 39 36 35 39 42 43 41 40 41 40 40 43 44 46 47 48 49 49 50 52 51 50 51 53 56 55 53 56 52 51
33 30 29 27 29 31 34 35 36 36 38 40 39 40 40 38 44 46 43 44 44 45 43 39 37 37 38 39 41 45 50 52 51 55 54 52 59 57 56 56 55 56 55
32 30 29 29 30 33 35 38 38 39 39 40 39 40 41 43 42 43 43 44 46 47 46 36 32 33 36 41 42 41 42 49 57 55 56 58 58 63 57 60 58 57 56
31 31 31 32 34 35 37 39 40 40 40 40 40 42 43 43 43 43 44 48 50 48 45 36 33 36 36 39 41 40 42 42 51 59 58 59 60 60 62 59 58 61 56
34 34 34 36 38 38 40 41 43 42 42 41 40 41 40 40 40 42 45 49 47 43 37 35 36 36 38 41 42 44 45 46 44 52 61 58 62 62 61 64 60 58 59
39 41 37 36 41 42 40 43 48 48 47 43 40 39 36 38 42 45 49 44 37 36 34 36 39 37 37 41 43 47 49 53 49 50 56 59 60 62 58 63 62 59 52
45 41 36 38 42 42 37 43 45 50 39 42 34 31 35 40 44 48 50 42 44 44 41 42 40 40 41 43 46 46 48 48 51 53 54 58 60 63 59 63 61 57 56
54 39 39 42 44 42 40 45 46 44 45 29 31 34 37 42 46 46 47 45 39 40 39 39 40 39 43 47 46 38 39 44 48 48 53 54 61 61 59 62 60 55 54
46 49 41 46 44 43 41 44 43 37 30 42 42 40 38 44 45 46 43 39 38 40 38 37 38 42 45 50 49 32 35 41 48 48 50 51 58 57 58 60 57 57 56
54 50 43 47 49 41 42 37 43 42 45 47 44 42 42 44 44 45 42 35 35 34 37 36 37 44 48 51 46 38 41 41 49 50 46 51 54 55 57 60 60 56 54
52 54 45 53 49 42 39 42 42 46 46 49 51 48 45 42 43 42 34 36 30 31 34 32 32 39 47 48 49 47 49 34 38 42 47 51 53 55 55 59 61 60 57
Wind_Direction
9 19 15 357 358 2 1 359 353 348 339 330 318 308 300 293 268 266 270 268 261 252 245 238 240 238 229 228 224 227 239 209 189 208 235 200 110 82 126 149 171 174 163
9 11 14 8 5 3 359 358 356 356 353 348 341 323 309 296 283 265 260 264 265 258 249 244 237 234 233 228 229 222 227 238 226 202 223 235 220 195 167 159 158 162 151
354 351 359 1 358 1 358 357 355 352 355 352 344 335 323 310 301 286 264 258 258 256 250 248 244 237 234 231 227 228 220 229 237 228 213 216 224 221 208 186 179 183 173
357 350 354 344 354 356 356 349 349 348 349 350 347 348 346 330 311 297 291 274 267 256 249 244 245 244 234 235 232 228 229 225 230 231 225 217 218 224 223 210 204 188 189
2 356 342 341 343 342 342 336 339 339 340 339 338 335 339 343 335 320 304 288 275 263 253 248 242 242 244 234 235 232 230 230 229 234 230 225 219 219 221 222 220 210 196
355 341 337 334 332 332 327 325 328 330 331 331 329 329 332 334 334 336 324 311 289 277 262 253 252 245 242 244 240 235 234 233 232 231 235 231 224 221 223 220 220 220 215
325 323 323 324 324 324 326 324 325 323 324 323 321 321 324 327 329 330 330 329 309 286 269 260 253 252 248 246 245 245 237 235 234 232 232 232 231 225 222 223 220 218 216
316 312 316 317 309 311 311 318 321 322 321 321 316 317 317 321 323 323 322 324 324 308 287 265 258 257 252 241 241 243 244 241 236 236 234 233 231 228 226 220 221 221 217
313 313 314 313 316 316 313 313 317 318 318 317 314 311 315 316 317 317 316 318 314 315 304 288 270 261 258 248 245 244 244 243 242 237 236 236 237 235 228 225 220 221 221
312 312 314 315 312 313 314 312 311 315 315 315 312 306 308 310 311 312 314 314 310 305 303 293 280 270 259 256 253 245 244 240 243 239 236 235 235 237 238 231 225 221 223
305 306 307 310 310 308 308 311 313 316 315 315 312 309 307 309 307 305 304 310 311 304 296 291 284 275 268 259 255 252 246 246 242 243 238 235 235 234 236 237 238 230 224
305 308 308 311 312 312 313 311 312 314 315 315 316 315 314 310 310 310 306 297 295 301 299 290 280 273 269 263 259 255 251 244 241 238 242 237 236 232 233 234 233 238 233
307 311 317 318 312 309 307 307 312 313 313 314 316 317 315 312 313 311 308 306 297 295 290 289 285 279 270 263 260 258 252 251 243 240 243 238 237 235 231 234 233 233 233
312 313 313 309 305 304 305 309 314 315 315 315 318 321 318 316 318 320 313 305 301 297 291 282 281 279 276 271 263 255 253 252 247 245 244 236 238 236 231 231 232 233 233
307 307 307 305 305 306 308 310 313 312 317 318 318 320 315 317 317 317 313 307 305 299 293 286 280 279 276 270 266 260 253 248 250 244 242 241 241 233 232 230 230 231 232
300 301 298 303 302 303 305 309 312 315 316 317 316 316 313 313 313 313 313 309 303 301 299 292 287 281 273 270 266 262 258 250 243 247 246 241 235 234 233 232 232 229 232
293 292 294 301 304 304 305 308 310 312 313 314 315 314 316 315 312 314 311 306 304 302 301 296 284 275 274 273 272 268 259 254 248 242 241 240 235 234 235 232 231 230 231
292 294 301 307 306 303 302 305 308 310 312 311 310 312 317 314 311 309 306 302 300 298 300 292 284 280 277 274 271 270 269 258 251 247 239 237 236 235 235 228 233 232 229
292 299 304 308 303 300 300 303 307 309 310 311 314 315 312 311 311 308 303 301 300 300 298 291 286 281 278 276 276 272 267 262 256 247 245 236 235 234 232 234 230 230 230
291 305 306 306 302 300 303 307 309 311 311 312 316 313 312 310 307 304 300 299 302 302 297 294 291 289 286 280 275 269 269 268 262 254 243 240 232 232 231 229 231 232 234
289 287 297 301 300 301 306 314 314 309 310 307 311 309 311 308 306 302 302 303 301 299 294 296 294 294 290 286 280 277 272 268 265 262 246 240 234 230 230 228 227 228 226
294 291 291 301 301 303 306 317 313 316 309 305 307 309 309 307 304 303 305 299 293 297 291 293 293 293 292 289 292 286 276 269 263 261 248 235 233 227 225 224 223 227 224
291 281 294 297 297 301 302 311 313 311 312 306 313 311 309 304 305 302 302 300 297 295 294 296 293 290 292 299 303 286 272 267 261 250 247 230 231 224 223 221 220 221 222
287 287 290 291 297 299 297 303 302 308 300 315 317 304 303 302 304 305 302 293 301 299 300 303 298 300 302 306 305 280 272 257 254 248 247 229 226 219 222 218 215 216 222
283 292 286 284 292 297 300 298 312 309 301 311 312 309 304 305 304 304 303 299 305 298 304 304 308 312 309 307 306 292 292 269 251 247 238 224 220 216 219 213 211 214 214
290 291 276 286 290 298 300 317 309 309 311 309 307 304 302 301 303 304 301 306 300 303 306 309 318 321 316 310 305 305 297 284 262 250 237 218 214 213 215 212 211 211 212
Height
5910 5909 5907 5906 5905 5903 5902 5900 5898 5897 5896 5895 5894 5893 5892 5892 5892 5891 5891 5892 5892 5893 5894 5895 5895 5896 5896 5897 5897 5898 5898 5897 5897 5897 5898 5899 5899 5900 5900 5900 5900 5901 5901
5910 5909 5908 5907 5905 5904 5903 5901 5899 5897 5896 5893 5892 5891 5890 5889 5888 5887 5887 5887 5888 5889 5889 5890 5890 5891 5892 5893 5895 5895 5896 5896 5896 5895 5897 5898 5898 5900 5900 5900 5900 5901 5901
5910 5909 5909 5907 5906 5904 5903 5901 5899 5897 5894 5892 5890 5889 5888 5886 5885 5884 5884 5883 5883 5883 5884 5884 5884 5884 5887 5889 5891 5892 5892 5893 5894 5894 5894 5895 5897 5898 5899 5899 5899 5900 5900
5909 5908 5907 5907 5905 5903 5902 5900 5897 5895 5893 5891 5889 5887 5885 5884 5882 5881 5879 5879 5879 5878 5878 5878 5879 5880 5881 5884 5886 5887 5889 5890 5891 5891 5892 5893 5894 5895 5897 5898 5898 5899 5900
5909 5907 5907 5905 5903 5902 5900 5898 5896 5894 5892 5889 5886 5884 5883 5880 5878 5877 5876 5875 5875 5874 5873 5874 5875 5876 5876 5877 5879 5882 5885 5886 5888 5889 5889 5890 5891 5892 5894 5895 5897 5898 5899
5908 5906 5904 5902 5900 5899 5898 5896 5893 5892 5890 5888 5884 5881 5878 5877 5875 5873 5871 5870 5869 5870 5870 5870 5871 5872 5873 5873 5873 5876 5879 5882 5883 5885 5887 5887 5888 5890 5891 5892 5893 5896 5898
5907 5905 5903 5901 5899 5897 5895 5892 5890 5889 5888 5886 5882 5879 5876 5873 5871 5869 5867 5865 5864 5863 5863 5864 5864 5866 5868 5869 5869 5869 5871 5875 5878 5880 5882 5884 5885 5887 5888 5889 5890 5892 5894
5904 5902 5900 5899 5897 5896 5893 5890 5887 5885 5883 5882 5880 5876 5872 5871 5868 5866 5864 5861 5859 5858 5857 5857 5857 5857 5858 5860 5862 5863 5865 5867 5872 5875 5878 5880 5881 5882 5885 5885 5887 5889 5891
5901 5899 5897 5894 5892 5890 5888 5887 5885 5882 5879 5878 5875 5874 5870 5865 5862 5862 5861 5859 5856 5853 5851 5851 5849 5849 5850 5852 5853 5855 5857 5861 5864 5868 5872 5875 5878 5879 5880 5881 5883 5885 5887
5897 5894 5892 5890 5888 5886 5883 5881 5880 5877 5874 5871 5869 5868 5867 5864 5859 5855 5854 5854 5852 5849 5847 5845 5843 5842 5843 5843 5845 5848 5848 5852 5856 5860 5863 5867 5871 5875 5877 5878 5879 5880 5882
5893 5891 5888 5885 5882 5880 5878 5875 5873 5871 5868 5867 5864 5863 5861 5860 5858 5854 5848 5845 5844 5844 5842 5839 5837 5835 5836 5836 5836 5838 5840 5842 5848 5852 5856 5859 5863 5867 5870 5874 5877 5878 5878
5887 5884 5883 5880 5877 5874 5871 5870 5868 5866 5865 5862 5860 5857 5855 5852 5850 5849 5846 5843 5837 5832 5831 5832 5831 5829 5827 5828 5829 5829 5830 5833 5837 5841 5846 5849 5854 5857 5862 5865 5870 5874 5875
5882 5879 5876 5873 5871 5870 5868 5867 5865 5862 5858 5855 5853 5851 5847 5844 5842 5840 5838 5836 5832 5828 5823 5820 5819 5819 5819 5819 5819 5820 5821 5822 5826 5829 5833 5838 5842 5848 5851 5856 5861 5866 5868
5876 5873 5871 5870 5868 5866 5864 5861 5858 5854 5851 5847 5844 5841 5838 5835 5833 5831 5829 5826 5824 5821 5817 5812 5807 5806 5806 5806 5807 5808 5810 5811 5813 5816 5819 5825 5831 5836 5840 5845 5850 5857 5861
5871 5869 5866 5864 5862 5860 5857 5853 5850 5847 5844 5841 5836 5832 5828 5824 5820 5818 5816 5814 5811 5810 5807 5801 5796 5792 5791 5791 5791 5793 5796 5799 5800 5803 5807 5813 5818 5823 5827 5833 5839 5846 5851
5865 5863 5860 5858 5856 5854 5851 5848 5844 5841 5836 5832 5827 5823 5819 5814 5809 5805 5802 5799 5796 5794 5792 5788 5783 5778 5776 5774 5775 5777 5779 5783 5787 5789 5792 5797 5802 5809 5816 5821 5828 5834 5841
5860 5857 5854 5850 5849 5846 5843 5840 5836 5833 5828 5824 5819 5815 5810 5807 5801 5796 5791 5786 5783 5779 5778 5774 5770 5766 5764 5763 5761 5761 5763 5766 5770 5774 5778 5783 5788 5794 5801 5808 5815 5823 5830
5853 5849 5846 5842 5840 5838 5835 5832 5829 5824 5820 5814 5809 5805 5801 5797 5791 5785 5779 5774 5769 5765 5762 5761 5759 5754 5752 5748 5749 5750 5749 5749 5752 5756 5762 5767 5773 5780 5786 5795 5802 5809 5817
5844 5840 5837 5834 5832 5830 5827 5825 5821 5816 5810 5805 5801 5795 5790 5785 5780 5774 5769 5762 5756 5750 5745 5745 5746 5742 5740 5735 5736 5735 5735 5735 5735 5738 5743 5750 5756 5762 5771 5779 5787 5796 5803
5834 5831 5827 5826 5824 5821 5818 5815 5811 5805 5800 5796 5790 5784 5779 5775 5770 5764 5757 5749 5743 5738 5734 5731 5730 5730 5727 5723 5721 5720 5722 5718 5720 5720 5725 5732 5739 5747 5755 5764 5774 5782 5790
5823 5822 5819 5816 5815 5812 5809 5805 5799 5792 5788 5783 5779 5774 5768 5764 5757 5750 5743 5737 5732 5728 5725 5722 5717 5716 5714 5709 5706 5704 5703 5701 5704 5703 5707 5714 5721 5730 5738 5748 5757 5769 5778
5815 5811 5809 5806 5806 5802 5800 5795 5789 5782 5776 5773 5768 5761 5757 5754 5747 5741 5735 5729 5724 5718 5713 5711 5708 5703 5699 5696 5692 5686 5682 5681 5686 5681 5686 5697 5701 5711 5722 5732 5742 5753 5764
5804 5800 5800 5797 5795 5793 5790 5785 5781 5775 5769 5763 5759 5754 5749 5743 5737 5732 5726 5719 5713 5708 5702 5699 5696 5690 5685 5679 5675 5669 5665 5662 5663 5665 5664 5679 5683 5697 5707 5718 5729 5738 5749
5795 5792 5790 5787 5786 5783 5780 5776 5772 5764 5759 5755 5751 5746 5740 5733 5726 5721 5715 5709 5704 5699 5693 5687 5682 5677 5671 5663 5657 5653 5650 5648 5645 5647 5648 5662 5668 5684 5691 5704 5715 5726 5735
5786 5784 5781 5776 5774 5771 5767 5763 5759 5754 5750 5745 5741 5736 5729 5721 5715 5710 5705 5701 5694 5690 5684 5678 5673 5666 5658 5651 5644 5640 5634 5629 5629 5631 5635 5645 5655 5669 5677 5689 5701 5712 5723
5777 5775 5773 5767 5762 5760 5757 5754 5749 5743 5736 5733 5729 5723 5716 5712 5707 5700 5697 5693 5687 5683 5677 5671 5665 5658 5649 5639 5632 5625 5616 5613 5613 5617 5621 5630 5641 5653 5665 5678 5690 5700 5713